Weather Service Report


532 
ASUS46 KLOX 190012
RWRCA 

SOUTHERN CALIFORNIA WEATHER ROUNDUP
NATIONAL WEATHER SERVICE OXNARD CALIFORNIA
500 PM PDT THU SEP 18 2014

NOTE: "FAIR" INDICATES FEW OR NO CLOUDS BELOW 12,000 FEET WITH NO 
SIGNIFICANT WEATHER AND/OR OBSTRUCTIONS TO VISIBILITY.

  -  STATIONS PRECEEDED BY AN ASTERISK (*) ARE NOT NWS OR FAA 
     STATIONS AND ARE NOT SUBJECT TO NWS AND FAA QUALITY CONTROL.

CAZ041-042-087-190100-
LA AND ORANGE COUNTY COASTAL AREAS

  
CITY           SKY/WX    TMP DP  RH WIND       PRES   REMARKS
L.A. DOWNTOWN  SUNNY     77  63  61 VRB6      29.81S                  
L.A. AIRPORT   PTSUNNY   72  65  78 W14       29.82F                  
LONG BEACH     SUNNY     79  65  62 W10       29.81S                  

CITY           SKY/WX    TMP DP  RH WIND       PRES   REMARKS
AVALON           N/A     77 N/A N/A MISG        N/A                   
FULLERTON      SUNNY     83  62  49 VRB7      29.79S                  
*GETTY CENTER    N/A     72  63  73 SW14        N/A                   
HAWTHORNE      CLOUDY    74  66  76 W12       29.82S                  
*LEO CARRILLO    N/A     75  64  69 W12         N/A                   
*LOS ALAMITOS  MOSUNNY   78  67  67 SW14      29.81S                  
*REDONDO BEACH   N/A     74  66  76 W3        29.82S                  
SANTA ANA      MOSUNNY   79  65  62 SW9       29.81F                  
STA MONICA APT PTSUNNY   73  64  73 SW13      29.82S                  
*STA MON PIER    N/A     69  66  89 S13       29.81S                  
TORRANCE       MOSUNNY   77  66  69 W12       29.83S                  
*UCLA            N/A     70  63  78 SW15      29.79F                  

$$

CAZ547-548-048-190100-
LA COUNTY VALLEYS AND INLAND EMPIRE

  
CITY           SKY/WX    TMP DP  RH WIND       PRES   REMARKS
BURBANK        SUNNY     79  61  53 S9        29.80F                  
VAN NUYS       SUNNY     83  61  47 SE12      29.80S                  

CITY           SKY/WX    TMP DP  RH WIND       PRES   REMARKS
CORONA AIRPORT CLEAR     83  64  52 W12G20    29.80S                  
*CHATSWORTH      N/A     80  63  55 W10       29.76R                  
CHINO          MOSUNNY   83  63  50 W15       29.81S                  
MARCH AFB      MOSUNNY   84  60  44 NW13      29.83S                  
*NORTHRIDGE      N/A     82  55  39 W5G10       N/A                   
ONTARIO        MOSUNNY   84  62  47 W12G21    29.80S                  
*PASADENA        N/A     82  64  54 CALM        N/A                   
POMONA         SUNNY     81  61  50 W15       29.85S                  
RIVERSIDE      SUNNY     83  61  47 W14       29.80S                  
SAN BERNARDINO SUNNY     84  55  37 SW9       29.81                   
*SAN GABRIEL     N/A     78  60  52 CALM      29.76S                  
*SAN RAFAEL HI   N/A     81  61  49 E8          N/A                   
*SAUGUS          N/A     84  55  36 SW10G25     N/A                   
*WHITEMAN AP   SUNNY     81  59  47 E9        29.84S                  
*WOODLAND HILL   N/A     82  57  42 W6          N/A                   

$$

CAZ054-055-190100-
LA AND SAN BERNARDINO COUNTY MOUNTAINS

  
CITY           SKY/WX    TMP DP  RH WIND       PRES   REMARKS
*BIG BEAR AIRP CLEAR     66  28  24 SW10G17   30.09F                  
MT WILSON NWS    N/A     72  57  60 MISG        N/A                   
SANDBERG       SUNNY     75  52  44 S14G21    29.96S                  
*WARM SPRINGS    N/A     74  51  44 S3          N/A                   

$$

CAZ028-029-059-060-099-190100-
ANTELOPE VALLEY AND SURROUNDING AREAS

  
CITY           SKY/WX    TMP DP  RH WIND       PRES   REMARKS
LANCASTER      SUNNY     81  54  39 SW25G31   29.82F                  
PALMDALE       SUNNY     82  53  36 SW23      29.83F                  
*POPPY PARK      N/A     81  52  36 SW21G35     N/A                   

CITY           SKY/WX    TMP DP  RH WIND       PRES   REMARKS
29 PALMS       SUNNY     96  37  12 SW15      29.78S HX  91           
BARSTOW/DAGGET SUNNY     94  47  20 SW16G30   29.73S HX  90           
BISHOP         SUNNY     92  26   9 S14G23    29.72F                  
CHINA LAKE     SUNNY     91  42  18 SW23G31   29.72S                  
EDWARDS AFB    MOSUNNY   85  52  31 SW18G30   29.79R                  
MOJAVE         FAIR      84  48  28 W21       29.82S                  
NEEDLES        SUNNY    101  58  24 SW9       29.63F HX 100           
VICTORVILLE    SUNNY     86  48  26 S20       29.83S                  

$$

CAZ039-040-190100-
VENTURA AND SANTA BARBARA COUNTY COAST

  
CITY           SKY/WX    TMP DP  RH WIND       PRES   REMARKS
CAMARILLO      SUNNY     78  61  55 W17       29.81S                  
NWS OXNARD       N/A     73  62  68 CALM      29.81F                  
OXNARD AIRPORT SUNNY     72  63  73 W18       29.82S                  
*POINT MUGU    MOSUNNY   77  63  61 W13       29.83S                  
SBA APT/GOLETA SUNNY     74  62  66 W8        29.79F                  
*SANTA BARBARA   N/A     78  62  58 NE3       29.87S                  
*VENTURA         N/A     76  62  62 SW6       29.87S                  

$$

CAZ044-045-190100-
VENTURA COUNTY VALLEYS

  
CITY           SKY/WX    TMP DP  RH WIND       PRES   REMARKS
*SIMI VALLEY     N/A     76  62  62 W5        29.77S                  
*OJAI            N/A     80  63  55 W2        29.75R                  
*FILLMORE        N/A     79  64  60 W5        29.70S                  

$$

CAZ053-190100-
VENTURA COUNTY MOUNTAINS

  
CITY           SKY/WX    TMP DP  RH WIND       PRES   REMARKS
*LOCKWOOD VLY    N/A     72  43  35 MISG        N/A                   
*ROSE VALLEY     N/A     77  57  50 MISG        N/A                   

$$

CAZ034-035-036-190100-
CENTRAL COAST AND SANTA YNEZ VALLEY

  
CITY           SKY/WX    TMP DP  RH WIND       PRES   REMARKS
SAN LUIS OBISP MOSUNNY   72  62  71 N17       29.85R                  
SANTA MARIA    MOSUNNY   74  63  68 NW17      29.85R                  

CITY           SKY/WX    TMP DP  RH WIND       PRES   REMARKS
*CAL POLY SLO    N/A     73  64  73 W7          N/A                   
*LOMPOC        CLOUDY    72  61  68 NW10      29.86S                  
*PISMO BEACH     N/A     69  64  83 W3        29.85S                  
*SANTA YNEZ    FAIR      77  59  53 W16       29.83R                  

$$

CAZ037-038-051-190100-
SAN LUIS OBISPO COUNTY INTERIOR AND CUYAMA VALLEY

  
CITY           SKY/WX    TMP DP  RH WIND       PRES   REMARKS
*CUYAMA          N/A     81  54  39 W12       29.72F                  
PASO ROBLES    NOT AVBL                                               

$$

CAZ032-033-061-190100-
SOUTHERN DESERTS

  
CITY           SKY/WX    TMP DP  RH WIND       PRES   REMARKS
BLYTHE         MOSUNNY  102  61  25 S10       29.61F HX 103           
IMPERIAL       SUNNY    101  51  18 SW23      29.61R HX  98           
PALM SPRINGS   SUNNY    100  43  14 NW13G22   29.65S HX  96           
THERMAL        SUNNY    103  37  10 N15       29.58S HX  97           

$$

ELSEWHERE ACROSS THE WESTERN UNITED STATES AND MEXICO

  
CITY           SKY/WX    TMP DP  RH WIND       PRES   REMARKS
DENVER, CO     MOSUNNY   85  33  15 S15       29.93F                  
GRAND CANYON,  MOSUNNY   77  47  34 VRB3      30.05F                  
HONOLULU, HI   PTSUNNY   86  72  62 SE12      29.90F HX  92           
KAHULUI, MAUI  MOSUNNY   88  70  55 NE18      29.91F HX  92           
LAKE TAHOE, CA SUNNY     69  42  37 S18       30.01S                  
LAS VEGAS, NV  MOSUNNY   96  28   9 SW21G29   29.67S HX  90           
MAMMOTH LAKES, FAIR      73  34  23 W14G23    29.99F                  
MEXICO CITY, M PTCLDY    72  50  46 SE14      30.20R                  
PHOENIX, AZ    MOSUNNY   93  63  36 W6        29.69S HX  94           
PORTLAND, OR   CLOUDY    73  58  59 NE3       29.89R                  
RENO, NV       PTSUNNY   75  44  33 W26G35    29.87R SMOKE            
SALT LAKE CITY MOSUNNY   89  42  19 S14G23    29.76F                  
SAN DIEGO, CA  PTSUNNY   76  65  68 W13       29.84S                  
SAN FRANCISCO, MOSUNNY   77  62  59 SW12      29.83S                  
SAN JOSE, CA   MOSUNNY   78  57  48 W10       29.81F                  
SEATTLE, WA    CLOUDY    67  56  67 SW10      29.89R                  
TIJUANA, MEX   SUNNY     75  63  64 W10       29.86R                  

$$
  
STATION/POSITION TIME  TEMP    WIND        PRES    VSBY  WAVE
                       AIR SEA DIR/SP/G                  HT/PER
                 (UTC) (F)     (DEG/KT/KT) (MB)    (MI)  (FT/S)
POINT ARGUELLO B NOT AVBL
WEST SANTA BARBA 0000   64 60  300/ 14/ 17 1009.6F         7/14
POINT CONCEPTION NOT AVBL
EAST SANTA BARBA 0000   66 66  260/ 19/ 23 1009.0
SANTA MONICA BAY 0000   71 73  270/ 12/ 14 1009.6F         5/ 9

Return to Home page


Western Regional Climate Center, wrcc@dri.edu